Starlink 2589

operational
NORAD ID: 48371 Int'l Des: 2021-038 Owner: SPXS Country: US Constellation: starlink
LEOCIRCULARSTARLINK_TYPE

关于 Starlink 2589

正在加载描述...

实时位置

正在加载3D地球...

即将过境

高度历史

Altitude vs Time

uPlot chart will show altitude changes over time

两行轨道根数

1 48371U 21038U 25296.88796032 .00011712 00000-0 80380-3 0 9998
2 48371 53.0543 245.7441 0001142 87.1038 273.0082 15.06403419246543
Epoch: Oct 23, 2025 • Age: 20 hours

当前状态

高度 560.5 km
速度 7.58 km/s
星下点 -38.96°S, 164.19°E
发射日期 May 4, 2021
运行时间 4.4 years
类型 internet

技术详情

分类 Payload
质量 260.00 kg
干质量 248.00 kg
总质量 260.00 kg
长度 0.20 m
直径 2.80 m
跨度 9.00 m
形状 Box + pan
制造商 SPXS
平台类型 Starlink
阶段状态 In Orbit
所有者/国家 SPXS/US

大型星座

Loading constellations...